Location: Malvern Link
(52.1333°N, 2.3000°W)
Time: 16:06:14
(UTC+00:00)

Abrixas rocket - Pass Details

Date: 18 September 2020
Orbit: 329 x 336 km, 48.4° (Epoch: 22 October)

Event Time Altitude Azimuth Distance (km) Brightness Sun altitude
Rises 19:31:38 0° 249° (WSW) 2,095 6.6 -12.2°
Reaches altitude 10° 19:33:43 10° 240° (WSW) 1,258 5.3 -12.5°
Maximum altitude 19:36:19 34° 172° (S) 565 2.6 -12.9°
Enters shadow 19:37:11 27° 132° (SE) 679 2.8 -13.0°
